Location: Unspecified
(0.0000°N, 0.0000°E)
Time: 23:05:03
(UTC+00:00)

Altair 2 - Pass Details

Date: 07 November 2024
Orbit: 1017 x 1126 km, 90.0° (Epoch: 06 December)

Event Time Altitude Azimuth Distance (km) Brightness Sun altitude
Exits shadow 03:39:30 17° 210° (SSW) 2,498 10.5 -29.7°
Drops below altitude 10° 03:40:55 10° 205° (SSW) 2,964 10.9 -29.3°
Sets 03:43:38 0° 198° (SSW) 3,909 11.7 -28.7°
